Fort Wayne, IN

12:16 AM EDT on September 16, 2019 (GMT -0400)
Fort Wayne International

Weather History for KFWA - August, 2019

Change the Weather History Date:

Monday, August 19, 2019

  Actual Average Record
Temperature  
Mean Temperature 74 °F 72 °F  
Max Temperature 84 °F 82 °F 99 °F (1983)
Min Temperature 64 °F 61 °F 48 °F (1964)
Degree Days  
Heating Degree Days 0 0  
Month to date heating degree days 0 0  
Since 1 June heating degree days 18 32  
Since 1 July heating degree days 0 3  
Cooling Degree Days 9 7  
Month to date cooling degree days 148 138  
Year to date cooling degree days 789 644  
Since 1 June cooling degree days 721 587  
Growing Degree Days 24 (Base 50)    
Moisture  
Dew Point 68 °F    
Average Humidity 80    
Maximum Humidity 100    
Minimum Humidity 59    
Precipitation  
Precipitation 0.00 in 0.12 in 1.16 in (1961)
Month to date precipitation 2.73 2.30  
Year to date precipitation 26.65 25.50  
Sea Level Pressure  
Sea Level Pressure 30.01 in    
Wind  
Wind Speed 4 mph (SSE)    
Max Wind Speed 9 mph    
Max Gust Speed 15 mph    
Visibility 10 miles    
Events Fog    
T = Trace of Precipitation, MM = Missing Value Source: NWS Daily Summary

Daily Weather History Graph

Daily Weather History Graph

Search for Another Location

Airport or City:

Astronomy

Aug. 19, 2019 Rise Set
Actual Time 6:54 AM EDT 8:33 PM EDT
Civil Twilight 6:25 AM EDT 9:02 PM EDT
Nautical Twilight 5:49 AM EDT 9:38 PM EDT
Astronomical Twilight 5:12 AM EDT 10:15 PM EDT
Moon 10:53 PM EDT (8/19) 10:36 AM EDT (8/19)
Length of Visible Light 14h 37m
Length of Day
13h 39m
Waning Gibbous, 85% of the Moon is Illuminated
Aug 19
Waning Gibbous
Aug 23
Last Quarter
Aug 30
New
Sep 5
First Quarter
Sep 14
Full

Hourly Weather History & Observations

Time (EDT) Temp. Heat Index Dew Point Humidity Pressure Visibility Wind Dir Wind Speed Gust Speed Precip Events Conditions
12:08 AM 69.1 °F - 66.9 °F 93% 29.98 in 10.0 mi South 11.5 mph - N/A   Mostly Cloudy
12:22 AM 69.1 °F - 66.9 °F 93% 29.98 in 10.0 mi South 8.1 mph - N/A   Mostly Cloudy
12:54 AM 68.0 °F - 66.9 °F 96% 29.96 in 10.0 mi SW 3.5 mph - N/A   Scattered Clouds
1:54 AM 66.9 °F - 66.0 °F 97% 29.96 in 10.0 mi SW 3.5 mph - N/A   Scattered Clouds
2:54 AM 66.9 °F - 66.0 °F 97% 29.95 in 10.0 mi WSW 4.6 mph - N/A   Partly Cloudy
3:54 AM 66.0 °F - 64.9 °F 96% 29.95 in 10.0 mi Calm Calm - N/A   Partly Cloudy
4:54 AM 64.9 °F - 64.9 °F 100% 29.96 in 10.0 mi SW 4.6 mph - N/A Fog Patches of Fog
5:54 AM 64.9 °F - 64.0 °F 97% 29.97 in 10.0 mi Calm Calm - N/A Fog Patches of Fog
6:54 AM 64.0 °F - 64.0 °F 100% 29.99 in 7.0 mi South 3.5 mph - N/A Fog Patches of Fog
7:54 AM 66.0 °F - 64.9 °F 96% 30.01 in 6.0 mi Calm Calm - N/A   Scattered Clouds
8:54 AM 71.1 °F - 68.0 °F 90% 30.03 in 8.0 mi NNW 4.6 mph - N/A   Partly Cloudy
9:54 AM 73.9 °F - 69.1 °F 85% 30.04 in 10.0 mi Calm Calm - N/A   Partly Cloudy
10:54 AM 79.0 °F - 70.0 °F 74% 30.04 in 10.0 mi Variable 3.5 mph - N/A   Scattered Clouds
11:54 AM 80.1 °F 83.2 °F 70.0 °F 71% 30.05 in 10.0 mi East 5.8 mph - N/A   Mostly Cloudy
12:54 PM 81.0 °F 84.4 °F 70.0 °F 69% 30.06 in 10.0 mi East 5.8 mph - N/A   Mostly Cloudy
1:33 PM 81.0 °F 84.4 °F 70.0 °F 69% 30.07 in 10.0 mi East 4.6 mph - N/A   Mostly Cloudy
1:54 PM 81.0 °F 84.4 °F 70.0 °F 69% 30.06 in 10.0 mi Variable 4.6 mph - N/A   Mostly Cloudy
2:54 PM 82.0 °F 85.9 °F 70.0 °F 67% 30.05 in 10.0 mi SE 8.1 mph - N/A   Scattered Clouds
3:54 PM 84.0 °F 87.0 °F 68.0 °F 58% 30.04 in 10.0 mi SSE 6.9 mph - N/A   Scattered Clouds
4:54 PM 82.9 °F 87.0 °F 70.0 °F 65% 30.03 in 10.0 mi SSE 6.9 mph - N/A   Scattered Clouds
5:54 PM 82.9 °F 87.0 °F 70.0 °F 65% 30.02 in 10.0 mi SE 6.9 mph - N/A   Partly Cloudy
6:54 PM 82.0 °F 85.5 °F 69.1 °F 65% 30.01 in 10.0 mi SE 4.6 mph - N/A   Partly Cloudy
7:54 PM 81.0 °F 84.4 °F 70.0 °F 69% 30.01 in 10.0 mi SE 4.6 mph - N/A   Partly Cloudy
8:54 PM 77.0 °F - 70.0 °F 79% 30.01 in 10.0 mi SE 4.6 mph - N/A   Scattered Clouds
9:54 PM 73.9 °F - 71.1 °F 91% 30.03 in 10.0 mi Calm Calm - N/A   Mostly Cloudy
10:54 PM 73.0 °F - 70.0 °F 90% 30.05 in 10.0 mi Calm Calm - N/A   Mostly Cloudy
11:54 PM 72.0 °F - 70.0 °F 93% 30.04 in 10.0 mi Calm Calm - N/A   Mostly Cloudy